Regional Weather Roundup
Issued by NWS

Home | Current Version | Previous Version | Text Only | Print | Product List | Glossary Off
Versions: 1 2 3 4 5 6 7 8 9 10 11 12 13 14 15 16 17 18 19 20 21 22 23 24 25 26 27 28 29 30 31 32 33 34 35 36 37 38 39 40 41 42 43 44 45 46 47 48 49 50

000
ASUS44 KOUN 270800
RWROK

WEATHER ROUNDUP FOR OKLAHOMA
NATIONAL WEATHER SERVICE NORMAN OK
300 AM CDT FRI MAR 27 2015

NOTE: "FAIR" INDICATES FEW OR NO CLOUDS BELOW 12,000 FEET WITH NO
      SIGNIFICANT WEATHER AND/OR OBSTRUCTIONS TO VISIBILITY.

OKZ001>007-009>012-014-015-017-270900-
NORTHWEST OKLAHOMA AND THE PANHANDLE

CITY           SKY/WX    TMP DP  RH WIND       PRES   REMARKS
GAGE           CLOUDY    50  34  54 N8        30.15R
GUYMON         MOCLDY    45  33  63 CALM      30.18R
$$

OKZ016-021>023-033>039-044-045-270900-
SOUTHWEST OKLAHOMA

CITY           SKY/WX    TMP DP  RH WIND       PRES   REMARKS
LAWTON/REGL    CLEAR     42  34  73 NW5       30.11S
FREDERICK      CLEAR     43  34  70 W10       30.07
CLINTON        CLOUDY    53  31  42 NW9       30.13S
HOBART         PTCLDY    42  33  70 NW8       30.13R
$$

OKZ018>020-024>031-270900-
CENTRAL OKLAHOMA

CITY           SKY/WX    TMP DP  RH WIND       PRES   REMARKS
OKLAHOMA CITY  MOCLDY    48  33  56 W10       30.07S
OKC/WILEY POST CLOUDY    49  34  56 W14       30.08R
STILLWATER     CLOUDY    49  34  56 W7        30.04F
$$

OKZ008-013-054>072-270900-
NORTHEAST OKLAHOMA

CITY           SKY/WX    TMP DP  RH WIND       PRES   REMARKS
TULSA          MOCLDY    45  33  63 E3        30.06F
TULSA/JONES    CLOUDY    43  34  70 NE6       30.05F
PONCA CITY     CLOUDY    44  32  62 W5        30.05R
BARTLESVILLE   PTCLDY    40  33  76 CALM      30.08F
MUSKOGEE       PTCLDY    41  35  79 NE6       30.08R
$$

OKZ032-040>043-046>053-073>077-270900-
SOUTH CENTRAL/SOUTHEAST OKLAHOMA

CITY           SKY/WX    TMP DP  RH WIND       PRES   REMARKS
MCALESTER      PTCLDY    42  34  73 S3        30.07S
$$



USA.gov is the U.S. government's official web portal to all federal, state and local government web resources and services.